Content
SEND FEEDBACK

Daily
Averages
Monthly
Summary
Canada

VANCOUVER, BRITISH COLUMBIA


Home > North America > Canada > British Columbia
Elevation: 7 feet     Latitude: 49 11N     Longitude: 123 10W

WEATHER
 
SELECT A DAY
Number of Records: 249,704;   Date Range: 5/15/97 - 8/31/14
 
SHARE

PRINT THIS DATA

[ ← Previous Day ]
WEATHER ALMANAC - JULY 1, 2013
[ Next Day → ]
[ °C ]   °F
We're sorry. There is no daily almanac available for Vancouver, British Columbia on July 1, 2013.
WEATHER BY HOUR - JULY 1, 2013
[ °C ]   °F
Local TimeTemperatureDewpointHumidityBarometerVisibilityWind DirectionWind SpeedGust SpeedPrecipitationEventsConditions
12:35 AM62.6 °F57.2 °F82 %29.89 in10.0 miSouth (170°)5.8 mphClear
12:55 AM62.6 °F57.2 °F82 %29.89 in10.0 miSouth (180°)5.8 mphClear
1:15 AM62.6 °F57.2 °F82 %29.89 in10.0 miSouth (170°)4.6 mphClear
1:35 AM62.6 °F57.2 °F82 %29.89 in10.0 miSSE (160°)4.6 mphClear
1:55 AM62.6 °F57.2 °F82 %29.89 in10.0 miSouth (170°)3.5 mphClear
2:15 AM62.6 °F57.2 °F82 %29.90 in10.0 miSouth (170°)3.5 mphClear
2:35 AM60.8 °F55.4 °F82 %29.90 in10.0 miSouth (180°)6.9 mphClear
2:55 AM60.8 °F55.4 °F82 %29.90 in10.0 miSouth (190°)6.9 mphClear
3:15 AM60.8 °F55.4 °F82 %29.91 in10.0 miSSW (200°)4.6 mphClear
3:35 AM59.0 °F55.4 °F88 %29.91 in10.0 miCalmClear
3:55 AM59.0 °F57.2 °F94 %29.91 in10.0 miCalmClear
4:15 AM60.8 °F55.4 °F82 %29.91 in10.0 miCalmClear
4:35 AM59.0 °F55.4 °F88 %29.92 in10.0 miCalmRainLight Rain
4:55 AM59.0 °F55.4 °F88 %29.92 in10.0 miSSW (200°)5.8 mphClear
5:15 AM59.0 °F55.4 °F88 %29.92 in9.0 miCalmClear
5:35 AM59.0 °F55.4 °F88 %29.93 in9.0 miCalmClear
5:55 AM59.0 °F55.4 °F88 %29.93 in9.0 miCalmClear
6:15 AM59.0 °F55.4 °F88 %29.94 in9.0 miSouth (180°)4.6 mphClear
6:35 AM60.8 °F57.2 °F88 %29.94 in9.0 miCalmClear
6:55 AM62.6 °F57.2 °F82 %29.94 in9.0 miSouth (190°)3.5 mphClear
7:15 AM62.6 °F57.2 °F82 %29.95 in10.0 miCalmClear
7:35 AM64.4 °F57.2 °F77 %29.95 in10.0 miCalmClear
7:55 AM62.6 °F57.2 °F82 %29.95 in9.0 miCalmClear
8:15 AM62.6 °F57.2 °F82 %29.95 in9.0 miCalmClear
8:35 AM62.6 °F57.2 °F82 %29.95 in10.0 miNorth (360°)4.6 mphClear
8:55 AM62.6 °F57.2 °F82 %29.95 in9.0 miCalmClear
9:15 AM66.2 °F59.0 °F78 %29.95 in10.0 miCalmClear
9:35 AM66.2 °F59.0 °F78 %29.94 in9.0 miCalmClear
9:55 AM66.2 °F57.2 °F73 %29.94 in9.0 miCalmClear
10:15 AM66.2 °F59.0 °F78 %29.95 in10.0 miNorth (350°)4.6 mphClear
10:35 AM66.2 °F60.8 °F83 %29.94 in10.0 miCalmClear
10:55 AM66.2 °F60.8 °F83 %29.93 in10.0 miCalmClear
11:15 AM68.0 °F60.8 °F78 %29.93 in9.0 miNorth (350°)5.8 mphClear
11:35 AM68.0 °F60.8 °F78 %29.93 in10.0 miNNW (340°)5.8 mphClear
11:55 AM69.8 °F59.0 °F68 %29.94 in10.0 miNW (320°)5.8 mphClear
12:15 PM71.6 °F60.8 °F69 %29.92 in10.0 miNorth (350°)5.8 mphClear
12:35 PM73.4 °F64.4 °F73 %29.92 in9.0 miCalmClear
12:55 PM73.4 °F62.6 °F69 %29.92 in10.0 miNNW (340°)4.6 mphClear
1:15 PM73.4 °F62.6 °F69 %29.92 in10.0 miNNW (330°)6.9 mphClear
1:35 PM73.4 °F62.6 °F69 %29.92 in10.0 miNNW (340°)6.9 mphClear
1:55 PM75.2 °F62.6 °F65 %29.92 in10.0 miNorth (360°)5.8 mphClear
2:15 PM73.4 °F62.6 °F69 %29.93 in10.0 miCalmClear
2:35 PM75.2 °F62.6 °F65 %29.93 in10.0 miSouth (180°)6.9 mphClear
2:55 PM75.2 °F62.6 °F65 %29.92 in10.0 miSouth (180°)5.8 mphClear
3:15 PM77.0 °F62.6 °F61 %29.92 in10.0 miSouth (190°)9.2 mphClear
3:35 PM75.2 °F62.6 °F65 %29.92 in10.0 miSouth (180°)8.1 mphClear
3:55 PM77.0 °F62.6 °F61 %29.92 in10.0 miSouth (180°)9.2 mphClear
4:15 PM75.2 °F62.6 °F65 %29.92 in10.0 miSouth (180°)10.4 mphClear
4:35 PM75.2 °F62.6 °F65 %29.91 in10.0 miSouth (190°)12.7 mphClear
4:55 PM75.2 °F62.6 °F65 %29.91 in10.0 miSouth (180°)9.2 mph16.1 mphClear
5:15 PM73.4 °F60.8 °F65 %29.91 in10.0 miSouth (180°)11.5 mph18.4 mphRainLight Rain
5:35 PM73.4 °F59.0 °F61 %29.91 in9.0 miSouth (180°)11.5 mph19.6 mphRainLight Rain
5:55 PM73.4 °F59.0 °F61 %29.91 in10.0 miSouth (190°)10.4 mphClear
6:15 PM71.6 °F57.2 °F60 %29.90 in10.0 miSouth (180°)11.5 mph20.7 mphRainLight Rain
6:35 PM71.6 °F57.2 °F60 %29.90 in10.0 miSouth (180°)11.5 mph23.0 mphRainLight Rain
6:55 PM69.8 °F57.2 °F64 %29.90 in10.0 miSouth (170°)9.2 mph17.3 mphRainLight Rain
7:15 PM68.0 °F57.2 °F68 %29.90 in9.0 miSouth (170°)9.2 mph16.1 mphRainLight Rain
7:35 PM68.0 °F55.4 °F64 %29.90 in8.0 miSouth (180°)13.8 mph23.0 mphRainLight Rain
7:55 PM68.0 °F55.4 °F64 %29.90 in8.0 miSouth (180°)15.0 mph20.7 mphRainLight Rain
8:15 PM66.2 °F55.4 °F68 %29.90 in9.0 miSouth (180°)12.7 mph19.6 mphRainLight Rain
8:35 PM64.4 °F55.4 °F73 %29.90 in9.0 miSouth (180°)11.5 mph21.9 mphRainLight Rain
8:55 PM64.4 °F55.4 °F73 %29.91 in10.0 miSouth (180°)9.2 mph18.4 mphRainLight Rain
9:15 PM64.4 °F53.6 °F68 %29.92 in9.0 miSouth (180°)11.5 mph19.6 mphRainLight Rain
9:35 PM64.4 °F53.6 °F68 %29.93 in10.0 miSouth (180°)11.5 mph16.1 mphClear
9:55 PM64.4 °F53.6 °F68 %29.94 in10.0 miSouth (180°)10.4 mph16.1 mphRainLight Rain
10:15 PM64.4 °F53.6 °F68 %29.94 in10.0 miSouth (190°)11.5 mphClear
10:35 PM64.4 °F53.6 °F68 %29.94 in10.0 miSouth (190°)10.4 mph18.4 mphRainLight Rain
10:55 PM64.4 °F53.6 °F68 %29.95 in10.0 miSouth (180°)11.5 mph19.6 mphRainLight Rain
11:15 PM64.4 °F53.6 °F68 %29.96 in10.0 miSouth (180°)9.2 mphClear
11:35 PM64.4 °F55.4 °F73 %29.97 in10.0 miSouth (190°)11.5 mph17.3 mphClear
11:55 PM64.4 °F55.4 °F73 %29.98 in10.0 miSouth (180°)6.9 mphClear
Hourly data recorded from CZBB, located miles away from Vancouver, British Columbia







STORIES FROM OUR PARTNERS